Retour au catalogue

STARLINK-32089

ActifCommunicationsVLEO
NORAD 59687·PAYLOAD·🇺🇸 United States

Lancé May 8, 2024 depuis Cape Canaveral Space Force Station

Loading…

Prochains Passages (prochaines 24 heures)

TLE

FraisSource: CelesTrak SupGP

Époque: Sep 15, 2026, 01:58 UTC

1 59687C 24086F   26258.08243056 -.00006481  00000+0 -23477-3 0  2580
2 59687  43.0003  70.1260 0001503 273.9458 294.4639 15.27578437    17

Suivez STARLINK-32089 en temps réel avec AllMySat

Download on the App Store